Wind_Speed
79 82 84 87 90 93 95 98 100 102 105 107 109 112 115 118 122 127 131 136 140 144 148 150 153 155 156 157 158 158 158 158 159 159 159 159 159 160 159 159 158 157 157 155 154 153 151 149 148 146 145 143 142 141 140 138 137 137 136 135 135 134 133 133 132 131 130 128 127 125 123 121 120 118 117 115 113 111 109 107 105 102 101 100 99 97
77 80 83 86 89 91 94 96 98 101 103 105 107 110 112 116 119 124 128 133 137 141 145 148 151 153 154 156 157 157 157 158 158 158 158 158 159 159 159 158 158 157 156 155 154 153 151 149 148 146 144 143 141 140 139 138 137 136 135 135 134 134 133 133 132 131 130 128 127 126 124 122 120 119 117 115 113 112 110 108 105 103 101 100 99 98
76 78 81 84 87 90 92 94 97 99 101 103 105 107 110 113 117 121 125 130 134 138 142 146 149 151 153 154 155 156 157 157 157 157 157 157 158 158 158 158 157 157 156 155 154 152 151 149 147 145 144 142 141 140 138 137 136 135 134 134 134 133 133 132 132 131 130 129 127 126 124 122 120 119 117 116 114 112 110 108 106 103 101 100 99 98
74 77 80 83 85 88 90 93 95 97 99 101 103 105 108 111 114 118 122 127 131 136 140 143 146 149 151 153 154 155 156 156 156 156 156 157 157 157 157 157 157 157 156 155 154 152 151 149 147 145 144 142 141 140 138 137 135 134 134 133 133 133 132 132 131 131 130 129 127 126 124 122 121 119 117 116 113 111 109 107 105 103 101 100 99 98
73 76 78 81 84 86 89 91 93 95 97 99 101 104 106 108 112 115 119 123 128 133 137 140 144 147 149 151 153 154 155 155 155 155 156 156 156 156 157 157 157 157 156 155 154 152 150 148 147 145 144 142 141 139 138 136 135 134 133 133 132 132 132 132 131 130 130 129 128 126 125 123 121 119 117 115 113 110 108 106 105 103 102 101 100 99
72 74 77 80 82 85 87 89 92 94 96 98 100 102 104 106 109 112 116 120 125 130 134 138 141 144 147 149 151 153 154 154 154 155 155 155 155 156 156 156 157 156 156 155 154 152 150 148 146 145 144 142 141 139 138 136 135 134 133 132 132 131 131 131 131 130 130 129 128 127 125 123 122 120 118 115 113 110 108 106 104 103 102 101 100 99
70 73 76 78 81 83 85 87 90 92 94 96 98 100 102 104 107 110 114 118 122 126 131 135 139 142 145 148 150 151 152 153 153 154 154 154 154 155 156 156 156 156 155 155 153 152 150 148 147 145 144 142 141 139 138 136 135 133 132 132 131 131 131 131 131 130 130 129 128 127 125 124 122 120 118 116 114 112 109 106 104 103 102 101 100 99
69 71 74 77 79 81 84 86 88 90 92 95 96 98 100 103 105 108 111 115 119 124 128 132 136 140 143 146 148 150 151 152 152 153 153 153 154 154 155 155 155 155 155 154 153 151 150 148 146 145 144 142 141 139 138 136 134 133 132 131 131 130 130 130 130 130 129 129 128 127 126 125 123 121 119 116 114 113 111 108 105 103 101 100 99 98
67 70 73 75 78 80 82 84 86 89 91 93 95 97 99 101 103 106 109 112 116 121 125 130 134 138 141 144 146 148 149 151 151 152 152 153 153 153 154 154 154 154 154 153 152 151 149 147 146 144 143 142 140 139 137 136 134 133 132 131 130 129 129 129 130 129 129 128 128 127 126 125 124 122 120 118 115 114 113 110 107 104 102 100 99 97
65 68 71 74 76 78 80 83 85 87 89 91 93 95 97 99 101 104 107 110 114 118 122 127 131 135 139 142 144 146 148 149 150 151 152 152 152 152 152 152 152 153 153 152 151 150 149 147 145 144 143 142 140 139 137 136 134 132 131 130 129 129 129 129 129 129 128 128 128 127 127 126 125 124 121 119 116 114 113 111 108 106 104 101 99 96
64 66 69 72 74 77 79 81 83 85 88 90 92 94 96 98 100 102 105 108 112 116 120 124 129 133 137 140 142 145 146 148 149 149 150 150 150 150 150 151 151 151 151 151 150 149 148 146 145 144 143 142 140 139 137 135 134 132 131 130 129 128 128 128 128 128 127 127 127 127 127 127 126 125 123 120 117 115 113 111 109 107 105 102 99 96
62 65 67 70 73 75 78 80 82 84 86 88 90 92 94 96 98 100 103 106 109 113 117 122 126 130 134 138 141 143 145 146 147 148 148 149 149 149 149 149 149 150 150 150 149 148 147 146 145 144 143 142 140 139 137 135 134 132 131 130 128 127 127 127 127 127 127 127 127 127 127 127 127 126 124 121 118 115 113 111 109 107 105 103 100 97
60 63 66 68 71 74 76 78 81 83 85 87 89 91 93 95 97 99 101 104 107 111 115 120 124 128 132 135 138 141 143 144 145 146 147 147 147 147 147 148 148 149 149 149 148 147 146 145 144 143 143 142 140 139 137 135 134 132 131 129 128 127 126 126 126 126 126 126 127 128 128 128 127 126 124 122 119 116 113 111 109 107 104 102 101 99
59 61 64 67 70 72 75 77 79 82 84 86 88 90 91 93 95 97 100 102 105 109 113 117 122 126 130 133 136 138 140 142 143 144 145 146 146 146 146 147 148 148 149 149 148 147 146 145 144 143 143 142 140 139 137 136 134 132 130 128 127 126 125 125 125 125 126 126 127 127 128 128 127 126 124 122 120 117 113 110 108 105 103 102 101 100
58 60 63 65 68 70 73 76 78 80 82 84 86 88 90 92 94 96 98 101 104 107 111 115 119 123 127 131 134 136 138 140 141 143 144 144 144 145 145 146 147 148 148 148 148 147 146 145 144 143 143 142 140 139 137 136 133 131 129 128 126 125 124 124 124 124 125 125 126 127 127 127 126 125 124 123 120 117 114 110 107 104 102 101 101 101
56 59 61 64 66 69 71 74 77 79 81 83 85 87 89 91 92 94 97 99 102 105 109 113 117 121 125 128 131 134 136 138 140 141 142 143 143 144 145 146 147 148 148 148 148 147 146 145 144 144 143 142 141 139 137 135 132 130 128 127 125 124 123 123 123 123 124 124 125 126 126 126 125 124 123 123 121 118 114 111 107 104 102 101 101 100
55 58 60 62 65 67 70 73 75 77 80 82 84 86 87 89 91 93 95 98 100 104 107 111 115 119 122 126 129 132 134 136 138 140 141 142 142 143 144 146 147 147 148 148 147 147 146 145 145 144 143 142 140 138 136 134 131 129 127 126 125 124 123 122 122 123 123 123 124 125 125 125 124 124 123 122 121 119 115 111 108 104 102 102 101 100
54 56 58 61 63 66 68 71 73 76 78 80 83 84 86 88 90 92 94 96 99 102 105 109 113 116 120 124 127 130 132 135 137 138 140 141 142 143 144 146 146 147 147 147 147 146 146 145 145 144 143 142 140 138 136 133 131 129 127 126 124 123 122 122 122 122 122 123 123 124 124 124 123 123 123 123 121 119 116 112 108 105 104 102 101 99
53 55 57 59 61 64 67 69 72 74 77 79 81 83 85 87 88 90 93 95 98 101 104 107 110 114 118 122 125 128 131 133 135 137 139 140 141 143 144 146 146 147 147 147 146 146 145 145 145 144 143 142 140 138 135 133 131 129 127 126 124 123 122 121 121 121 121 122 122 122 123 123 123 123 123 123 121 119 116 112 109 106 104 102 100 99
51 53 55 57 59 62 65 68 70 73 75 78 79 81 83 85 87 89 92 94 96 99 102 105 108 112 116 119 123 126 129 132 134 136 138 140 141 143 145 146 146 146 146 146 146 145 145 145 145 144 143 142 140 138 135 133 131 129 127 125 124 122 121 121 121 120 120 120 121 121 121 122 122 123 123 122 121 120 117 113 109 107 105 102 100 98
50 52 53 55 58 60 63 66 69 71 74 76 78 80 82 84 86 88 90 93 95 98 100 103 107 110 114 117 121 124 127 130 133 135 137 139 141 143 145 146 146 146 146 146 145 145 145 145 145 144 143 142 140 138 136 133 131 129 127 125 124 122 121 120 120 120 119 119 119 120 120 121 122 122 122 122 121 120 117 113 110 107 104 102 100 98
49 50 52 54 56 59 62 64 67 70 72 74 76 78 80 82 85 87 89 91 94 96 99 102 105 108 112 115 119 122 126 129 132 134 136 139 141 143 145 145 145 145 145 145 145 145 145 145 145 144 143 142 140 138 136 133 131 129 127 125 123 122 121 120 119 119 118 118 118 119 120 121 121 122 122 122 121 120 118 114 110 107 104 102 100 99
48 49 51 53 55 57 60 63 65 68 70 72 74 76 79 81 83 86 88 90 93 95 97 100 103 106 110 113 117 120 124 127 130 133 136 139 142 144 144 145 145 144 145 145 145 145 145 144 144 144 143 141 140 138 136 133 131 129 127 125 123 122 120 119 119 118 118 117 118 118 119 120 121 121 121 121 122 121 118 115 111 108 105 102 101 99
47 48 50 52 54 56 59 61 64 66 68 70 72 74 77 80 82 84 87 89 91 93 96 98 101 104 108 111 115 119 123 126 130 133 136 139 142 143 144 144 144 144 145 145 145 144 144 144 144 143 142 141 139 138 135 133 131 129 126 124 123 121 120 119 118 117 117 117 117 118 119 120 120 121 121 121 122 121 119 116 112 109 106 104 102 99
45 47 49 51 53 55 57 59 62 64 66 68 70 73 76 78 81 83 85 87 89 92 94 97 100 103 106 110 114 118 122 126 130 133 137 139 142 143 143 144 144 144 145 144 144 144 144 144 143 143 142 141 139 137 135 133 130 128 126 124 122 121 119 118 117 116 116 116 116 117 118 119 119 120 120 121 122 121 120 117 114 110 107 105 102 98
44 45 47 49 51 53 55 57 60 62 64 66 69 72 75 77 80 82 84 86 89 91 93 96 99 102 105 109 114 118 122 126 130 134 137 140 142 143 143 143 144 144 144 144 144 143 143 143 143 142 142 140 139 137 135 132 130 128 126 124 122 121 119 118 117 116 115 115 116 116 117 117 118 119 120 121 122 122 121 119 115 111 108 106 102 98
41 43 45 47 49 51 53 55 58 60 62 65 68 71 74 76 79 81 83 85 87 89 92 94 97 101 104 109 113 118 123 127 130 134 137 140 142 143 143 143 144 144 144 144 144 144 144 143 143 143 142 140 139 137 135 132 130 128 126 124 123 121 119 118 116 115 114 114 115 115 116 116 117 118 120 121 122 122 121 120 117 113 110 107 103 99
39 40 43 45 47 49 51 53 56 58 61 64 67 70 73 75 78 80 82 84 86 88 91 93 96 100 104 109 113 118 123 127 131 134 137 140 141 142 143 143 144 144 144 144 144 143 143 143 143 142 141 140 139 137 135 132 130 128 126 125 122 120 119 117 116 115 114 114 114 114 115 115 116 118 119 121 122 123 122 121 119 115 111 108 105 101
36 38 40 42 45 47 50 52 54 57 60 63 66 69 72 74 77 79 81 83 85 87 90 92 96 100 104 109 113 118 122 127 131 134 137 139 141 141 142 143 143 144 144 144 143 143 143 143 143 142 141 140 138 137 134 132 130 128 126 124 122 120 118 117 115 114 114 113 113 114 114 115 116 117 119 121 122 123 123 122 120 117 113 109 106 102
34 36 38 41 43 46 48 51 54 56 59 62 65 68 71 73 75 77 79 82 84 86 89 92 96 99 104 109 113 118 123 127 131 134 137 138 140 140 141 142 143 144 144 144 144 144 144 144 143 142 141 140 138 136 134 132 130 128 126 123 121 119 118 116 115 114 114 113 113 113 113 114 116 117 119 121 122 123 123 123 122 119 114 110 107 104
32 34 37 39 42 45 48 50 53 56 59 62 64 67 69 72 74 76 79 81 83 86 89 92 96 100 104 109 113 118 123 127 131 133 135 137 138 139 141 142 143 143 144 144 145 145 145 144 143 142 141 139 138 136 134 131 129 127 126 123 121 119 118 117 115 114 114 113 113 113 113 114 116 117 119 120 122 123 123 123 123 120 116 111 108 106
31 33 36 39 41 44 47 50 53 56 58 61 63 66 68 71 73 75 78 80 83 85 88 92 96 100 104 109 113 118 123 126 129 132 134 135 137 139 140 142 143 143 143 144 145 145 145 144 144 143 141 139 137 135 133 131 129 128 126 124 122 120 118 117 116 114 113 113 112 112 113 114 116 117 119 120 121 122 123 123 123 122 117 113 109 107
30 33 35 38 41 44 47 50 53 55 58 60 63 65 67 70 72 75 77 80 82 85 88 92 96 100 104 109 113 117 121 125 128 130 132 135 137 139 140 142 142 143 144 144 144 144 143 144 143 143 141 139 137 135 133 131 129 128 126 124 122 121 119 117 116 114 113 113 112 112 113 114 116 117 118 120 121 122 123 123 123 122 119 114 110 108
30 32 35 38 41 44 47 50 53 55 57 60 62 64 66 69 71 74 77 79 82 85 88 92 96 100 104 108 113 117 120 124 127 129 132 135 137 139 141 142 142 143 144 144 144 144 143 142 142 142 141 139 137 135 133 131 130 128 127 125 123 121 119 118 116 115 114 113 112 112 113 114 116 117 118 119 120 121 122 123 124 123 120 115 111 109
30 32 35 38 41 44 47 50 52 54 57 59 61 63 66 68 71 74 77 79 82 85 88 91 95 99 104 108 113 117 120 124 126 129 132 135 137 139 140 141 142 143 143 144 144 144 144 143 142 141 140 138 136 134 133 132 130 129 127 125 123 121 120 118 117 115 114 113 112 112 113 114 115 116 117 118 119 120 121 122 123 124 122 117 113 110
30 32 35 38 41 44 46 49 52 54 56 58 60 63 65 68 70 73 76 79 82 85 88 91 94 98 103 107 112 116 120 123 126 129 132 135 137 139 140 141 141 142 143 144 144 144 144 143 142 141 139 138 136 135 133 132 131 129 127 125 123 122 120 119 117 116 114 113 113 113 114 115 115 116 116 117 118 119 120 121 123 124 123 118 114 111
30 32 35 38 41 43 46 49 51 53 55 57 60 62 65 67 70 73 76 79 82 84 87 91 94 98 102 107 111 115 119 123 126 129 132 134 136 138 139 140 141 142 143 144 144 144 144 143 142 141 139 138 136 135 134 132 131 130 128 126 124 122 120 119 117 116 115 114 113 114 114 115 115 115 115 116 116 118 119 121 123 125 124 120 116 112
29 32 35 37 40 43 45 48 50 52 55 57 59 62 64 67 70 73 76 78 81 84 87 91 94 98 102 106 111 114 118 122 126 129 132 134 136 137 138 139 140 142 143 144 144 144 144 143 143 142 140 138 137 136 134 133 132 131 129 127 124 123 121 119 118 116 115 114 114 114 114 114 114 114 114 114 115 117 118 120 122 124 125 122 118 114
29 32 34 37 40 42 45 47 49 52 54 56 59 61 64 67 70 72 75 78 81 84 87 91 94 98 102 106 110 114 118 122 126 129 132 134 136 137 138 139 141 142 143 143 144 144 144 144 143 142 141 139 138 136 135 134 133 132 129 127 124 123 121 120 118 116 115 115 114 114 114 113 113 113 112 113 114 115 117 119 122 124 126 124 120 116
29 32 34 37 39 42 44 46 49 51 53 56 58 61 64 67 69 72 75 78 81 84 87 90 94 98 102 106 110 114 118 122 126 129 131 134 135 137 138 139 141 142 143 144 144 144 144 143 143 141 140 139 138 136 135 134 133 131 129 127 125 123 122 120 118 117 115 114 114 113 112 112 111 111 111 111 112 114 116 118 121 123 126 125 122 118
29 31 34 36 39 41 43 46 48 51 53 56 58 61 64 67 69 72 75 78 81 84 87 90 94 98 101 106 110 114 118 122 125 128 131 133 135 136 138 139 140 142 143 144 144 144 143 143 142 141 140 139 137 135 134 133 132 131 129 128 126 124 122 120 118 117 115 114 113 112 111 110 110 109 110 110 112 113 115 117 119 122 125 125 124 121
28 31 33 36 38 40 43 45 48 50 53 55 58 61 64 66 69 72 75 78 80 83 86 90 93 97 101 105 109 113 117 121 125 128 130 133 134 136 137 139 140 141 143 143 144 143 142 142 141 141 140 138 136 134 133 133 132 131 130 128 126 123 121 120 119 117 116 115 113 112 110 110 109 109 109 110 111 112 113 115 118 121 124 125 124 122
28 30 33 35 38 40 42 45 47 50 53 55 58 61 63 66 69 71 74 77 80 83 86 89 93 96 101 105 109 113 117 120 124 127 129 132 134 135 137 138 140 141 142 143 143 143 142 141 141 140 139 138 136 134 133 132 132 131 130 128 126 124 123 121 119 118 116 115 114 112 111 110 109 109 109 110 111 112 112 114 117 120 123 124 124 123
28 30 32 35 37 39 42 44 47 50 52 55 58 60 63 66 68 71 74 76 79 82 85 88 92 95 99 104 108 112 116 120 123 126 128 131 133 135 136 138 140 141 142 143 143 143 142 142 141 141 140 138 136 134 133 132 132 131 130 128 127 126 125 123 121 119 117 116 114 113 112 111 110 110 110 110 110 111 111 113 116 119 122 123 124 123
27 29 32 34 37 39 42 44 47 49 52 55 58 60 63 65 68 71 73 76 79 82 84 88 91 95 99 103 107 111 115 119 122 125 128 130 132 134 136 138 140 141 142 142 142 143 143 143 142 142 140 139 137 135 134 133 133 132 131 130 128 126 124 123 121 120 118 116 115 114 113 112 111 111 110 110 110 110 111 113 116 120 121 122 123 123
27 29 31 34 36 39 41 44 47 49 52 55 57 60 63 65 68 71 73 76 79 81 84 87 91 94 98 102 107 111 115 119 122 125 128 130 132 133 135 137 139 141 142 142 142 142 143 143 144 143 142 140 138 137 135 135 134 133 133 131 129 127 125 123 122 121 119 117 116 115 114 113 112 112 111 111 111 111 111 114 117 120 121 121 121 122
26 29 31 33 36 38 41 44 46 49 52 54 57 60 62 65 68 70 73 76 78 81 84 87 90 94 98 102 106 111 115 119 122 125 127 130 132 133 135 137 139 140 141 142 143 143 143 144 144 144 143 142 140 138 136 135 135 134 133 132 130 128 126 125 123 121 119 118 117 116 115 114 113 112 112 112 111 111 112 114 117 120 121 120 120 121
26 28 31 33 35 38 41 43 46 49 51 54 57 59 62 65 68 70 73 75 78 81 84 87 90 94 97 101 106 110 114 118 121 124 127 129 132 134 135 137 139 140 141 142 143 143 144 145 145 144 143 141 139 137 136 135 135 135 134 132 130 128 127 125 123 121 120 119 118 117 116 115 114 114 113 112 112 112 113 115 118 120 120 120 120 120
26 28 30 33 35 38 40 43 46 48 51 54 57 59 62 64 67 70 72 75 78 80 83 87 90 94 97 101 105 109 113 117 120 123 126 129 131 133 136 137 139 140 141 142 142 143 144 144 144 143 140 138 136 135 135 135 135 135 133 131 130 128 127 126 124 123 122 121 120 119 117 116 115 115 114 114 113 113 113 116 119 121 121 120 120 120
25 28 30 33 35 37 40 43 45 48 51 53 56 59 62 64 67 69 72 75 77 80 83 86 89 93 97 101 105 109 113 117 120 123 125 128 130 133 135 138 139 141 142 142 143 143 143 143 142 140 137 135 133 133 134 135 135 134 133 132 131 130 128 127 126 125 124 123 121 120 118 117 116 115 115 115 114 114 114 116 119 121 121 120 120 120
25 27 30 32 35 37 40 42 45 48 51 53 56 59 61 64 67 69 72 74 77 80 82 85 89 92 96 101 105 109 113 116 119 122 125 127 130 132 135 137 139 140 141 142 143 143 143 142 141 139 137 135 133 133 134 135 135 135 134 133 132 131 130 129 128 127 125 124 122 120 118 117 116 115 115 115 115 115 115 117 120 121 120 120 119 119
Wind_Direction
214 214 214 214 214 214 214 214 214 214 214 214 214 213 213 213 212 212 212 211 211 211 211 212 212 212 212 212 213 213 213 213 213 213 213 213 213 213 214 214 215 215 216 216 216 216 216 216 216 217 217 217 217 216 216 216 216 216 216 215 215 215 216 216 216 216 217 217 217 217 217 217 217 217 218 218 218 219 219 219 220 221 222 223 224 226
214 214 214 214 214 214 214 214 214 214 214 214 213 213 213 212 212 212 211 211 211 211 211 211 211 211 212 212 212 212 213 213 213 213 213 213 213 213 213 214 214 215 215 216 216 216 216 216 216 216 216 216 216 216 216 216 216 215 215 215 215 215 215 215 216 216 216 216 217 217 217 217 217 217 217 217 218 218 219 219 219 220 220 221 223 225
213 213 213 213 213 213 213 213 213 213 213 213 213 213 212 212 212 211 211 211 210 210 210 210 211 211 211 211 212 212 212 212 212 212 212 212 212 212 213 213 213 214 215 215 215 216 216 216 215 215 216 216 216 216 216 215 215 215 215 215 215 215 215 215 215 215 216 216 216 216 216 216 216 216 216 217 217 218 218 218 218 219 219 220 221 223
212 212 213 213 213 213 213 213 213 213 213 213 213 213 212 212 211 211 211 210 210 210 210 210 210 210 210 211 211 211 211 212 212 212 212 212 212 212 212 212 213 213 214 214 215 215 215 215 215 215 215 215 215 215 215 215 215 214 214 214 214 214 214 214 214 215 215 215 216 216 216 215 215 215 216 216 216 217 217 218 218 218 218 219 220 222
212 212 212 212 212 212 213 213 213 213 213 212 212 212 212 212 211 211 210 210 210 210 210 209 210 210 210 210 210 211 211 211 211 211 211 211 211 211 211 212 212 213 213 214 214 215 215 215 215 215 215 215 215 215 215 214 214 214 214 214 214 214 214 214 214 214 214 215 215 215 215 215 215 215 215 215 215 216 216 216 217 217 217 218 219 220
211 211 211 212 212 212 212 212 212 212 212 212 212 212 211 211 211 210 210 210 209 209 209 209 209 209 209 210 210 210 210 210 211 211 211 211 211 211 211 211 211 212 212 213 213 214 214 214 214 214 214 214 214 214 214 214 214 213 213 213 213 213 213 213 213 214 214 214 214 214 214 214 214 214 214 214 214 214 214 215 215 216 216 217 218 220
211 211 211 211 211 211 212 212 212 212 212 211 211 211 211 211 210 210 210 209 209 209 209 209 209 209 209 209 209 209 210 210 210 210 210 210 210 210 210 211 211 211 212 212 213 213 213 213 214 214 214 214 214 214 214 214 213 213 213 213 213 213 213 213 213 213 213 213 214 214 214 214 213 213 213 213 213 213 213 214 214 215 216 217 218 219
211 211 210 211 211 211 211 211 211 211 211 211 211 211 210 210 210 210 209 209 209 208 208 208 208 208 208 208 209 209 209 209 209 209 210 210 210 210 210 210 210 211 211 212 212 213 213 213 213 213 213 214 214 214 213 213 213 213 212 212 212 212 212 212 212 213 213 213 213 213 213 213 213 212 212 212 212 212 213 213 213 213 214 216 217 218
212 211 210 210 210 210 210 210 211 211 211 211 210 210 210 210 209 209 209 208 208 208 208 208 208 208 208 208 208 208 208 208 209 209 209 209 209 209 209 210 210 210 211 211 212 212 212 212 213 213 213 213 213 213 213 213 213 212 212 212 212 212 212 212 212 212 212 212 213 213 213 213 212 212 211 211 211 212 212 212 212 213 213 215 216 217
212 211 211 210 210 210 210 210 210 210 210 210 210 210 209 209 209 208 208 208 208 207 207 207 207 207 207 207 208 208 208 208 208 208 208 208 209 209 209 209 209 210 210 211 211 212 212 212 212 212 213 213 213 213 213 213 212 212 212 212 211 211 211 211 212 212 212 212 212 212 212 212 212 212 211 210 211 211 212 212 212 213 213 214 215 216
212 212 211 210 210 209 209 209 209 209 209 209 209 209 209 209 208 208 208 207 207 207 207 207 207 207 207 207 207 207 207 207 207 208 208 208 208 208 208 208 209 209 210 210 211 211 211 211 212 212 212 213 213 213 213 213 212 212 212 211 211 211 211 211 211 211 211 212 212 212 212 212 212 212 211 210 210 211 212 212 213 213 213 214 215 216
212 212 211 210 209 209 209 209 208 209 209 209 209 209 208 208 208 207 207 207 206 206 206 206 206 206 206 206 206 206 207 207 207 207 207 207 207 208 208 208 208 209 209 210 210 211 211 211 211 212 212 212 213 213 213 212 212 212 211 211 211 211 210 211 211 211 211 211 211 212 212 212 212 212 211 210 210 210 211 212 213 213 214 214 215 215
212 211 211 210 209 209 208 208 208 208 208 208 208 208 208 207 207 207 206 206 206 206 206 206 206 206 206 206 206 206 206 206 206 206 206 207 207 207 207 207 208 208 209 209 210 210 210 211 211 211 212 212 212 212 212 212 212 212 211 211 211 210 210 210 210 210 211 211 211 211 211 212 212 212 211 210 210 210 211 212 212 213 214 214 215 215
211 211 210 210 209 209 208 208 207 207 207 207 207 207 207 207 206 206 206 206 205 205 205 205 205 205 205 205 205 205 205 205 206 206 206 206 206 206 206 207 207 207 208 208 209 209 210 210 210 211 211 212 212 212 212 212 212 211 211 211 210 210 210 210 210 210 210 211 211 211 211 212 212 212 211 210 210 210 210 211 212 213 213 214 214 215
210 210 210 210 209 209 208 207 207 207 207 207 207 207 206 206 206 205 205 205 205 205 205 205 205 205 205 205 205 205 205 205 205 205 205 205 205 205 206 206 206 207 207 208 208 209 209 209 210 210 211 211 212 212 212 212 211 211 211 210 210 210 210 210 210 210 210 210 211 211 211 212 212 212 211 210 209 209 210 211 211 212 212 213 214 215
209 209 209 209 209 208 208 207 207 207 206 206 206 206 206 205 205 205 204 204 204 204 204 204 204 204 204 204 204 204 204 204 204 204 204 204 205 205 205 205 206 206 207 207 207 208 208 209 209 210 211 211 211 212 212 211 211 211 211 210 210 210 210 209 209 210 210 210 210 211 211 211 212 211 211 210 209 209 209 210 211 211 212 213 214 214
208 208 208 208 208 208 208 207 207 206 206 206 205 205 205 205 204 204 204 204 204 204 204 204 204 203 203 203 203 203 203 203 203 203 203 204 204 204 204 205 205 206 206 206 207 207 208 208 209 209 210 211 211 211 211 211 211 211 210 210 210 210 209 209 209 209 210 210 210 211 211 211 211 211 211 210 209 209 209 209 210 211 211 212 213 214
207 207 207 207 208 207 207 207 207 206 206 205 205 205 204 204 204 203 203 203 203 203 203 203 203 203 203 202 202 202 202 202 202 203 203 203 203 203 204 204 205 205 205 206 206 207 207 207 208 209 209 210 211 211 211 211 210 210 210 210 210 209 209 209 209 209 209 209 210 210 211 211 211 211 211 210 209 209 208 209 209 210 211 212 213 214
207 207 207 207 207 207 207 207 206 206 206 205 205 204 204 203 203 203 202 202 202 202 202 202 202 202 202 202 202 202 201 201 202 202 202 202 202 203 203 204 204 205 205 205 206 206 206 207 207 208 209 210 210 211 211 210 210 210 210 209 209 209 209 209 209 209 209 209 209 210 210 211 211 211 211 210 209 208 208 208 209 210 211 212 213 214
206 206 206 206 206 206 206 206 206 206 205 205 204 204 203 202 202 202 202 202 202 202 202 202 201 201 201 201 201 201 201 201 201 201 201 201 201 202 203 203 204 204 204 205 205 205 206 206 207 207 208 209 210 210 210 210 210 209 209 209 209 209 209 209 209 209 209 209 209 209 210 210 211 211 211 210 209 208 207 207 208 210 211 212 212 213
205 205 205 205 205 206 206 206 206 205 205 205 204 203 203 202 202 201 201 201 201 201 201 201 201 200 200 200 200 200 200 200 200 200 200 200 201 201 202 203 203 203 204 204 205 205 205 206 206 207 208 208 209 209 210 210 209 209 209 209 209 208 208 208 208 208 208 208 209 209 209 210 210 210 210 210 209 208 207 207 208 209 210 211 212 212
205 204 204 204 205 205 205 205 205 205 205 204 204 203 202 201 201 201 201 201 200 200 200 200 200 200 200 199 199 199 199 199 199 199 199 200 200 201 202 202 202 203 203 204 204 205 205 205 206 206 207 208 208 209 209 209 209 209 209 208 208 208 208 208 208 208 208 208 208 209 209 210 210 210 210 210 209 208 206 206 207 208 209 210 211 212
204 204 203 204 204 204 204 205 205 204 204 204 203 202 202 201 201 200 200 200 200 200 200 199 199 199 199 198 198 198 198 198 198 198 199 199 200 200 201 202 202 202 203 203 204 204 205 205 205 206 207 207 208 208 208 209 209 209 208 208 208 208 208 208 208 208 208 208 208 208 209 209 210 210 210 210 209 208 206 205 206 208 208 209 210 212
204 203 202 202 203 203 203 204 204 204 204 203 202 202 201 201 200 200 200 200 199 199 199 199 198 198 198 197 197 197 197 197 197 198 198 198 199 200 201 201 201 202 202 203 203 204 204 205 205 206 206 207 207 208 208 208 208 208 208 208 208 208 208 208 207 207 207 207 207 208 208 209 209 210 210 209 209 208 206 205 205 207 207 208 210 212
204 203 202 201 201 202 202 203 203 203 203 202 202 201 201 200 200 200 199 199 199 198 198 198 197 197 197 196 196 196 196 196 197 197 197 198 199 199 200 200 201 201 202 202 203 203 204 204 205 205 206 206 207 207 208 208 208 208 208 208 208 207 207 207 207 207 207 207 207 208 208 209 209 209 209 209 209 208 206 205 205 206 207 208 210 211
204 203 201 200 200 201 201 201 202 202 201 201 201 201 200 200 199 199 199 198 198 197 197 197 196 196 195 195 195 195 195 196 196 196 197 198 198 199 199 200 200 200 201 202 202 203 203 204 204 205 205 206 206 207 207 207 207 207 207 207 207 207 207 207 207 207 207 207 207 207 208 208 209 209 209 209 209 208 206 204 204 205 207 208 209 211
205 203 201 200 199 199 200 200 200 200 200 200 200 200 200 200 199 198 198 197 197 197 196 196 195 195 195 194 194 194 195 195 195 196 196 197 198 198 199 199 199 200 201 201 202 202 203 203 204 204 205 205 206 206 207 207 207 207 207 207 207 207 207 207 207 207 207 207 207 207 208 208 208 209 209 209 209 208 206 204 204 205 206 208 209 210
204 202 200 199 198 198 198 198 199 199 199 199 199 199 199 199 199 198 197 197 196 196 195 195 194 194 194 194 194 194 194 194 195 195 196 197 197 197 198 198 199 199 200 201 201 202 202 203 203 204 204 205 205 206 206 206 207 207 207 207 207 206 206 206 206 206 206 206 207 207 207 208 208 208 209 209 209 208 206 204 204 205 207 208 209 209
203 201 199 198 197 197 197 197 197 198 198 198 199 199 199 199 198 197 197 196 195 195 194 194 193 193 193 193 193 193 194 194 194 195 196 196 197 197 197 198 198 199 199 200 201 201 202 203 203 204 204 205 205 205 206 206 206 207 207 207 206 206 206 206 206 206 206 206 206 207 207 207 208 208 209 209 208 208 207 205 204 205 207 208 209 209
201 199 198 197 196 195 195 195 196 196 197 198 198 198 198 198 197 197 196 195 194 194 193 193 193 193 193 193 193 193 193 194 194 195 195 195 196 196 197 197 198 198 199 200 200 201 201 202 203 203 204 204 205 205 205 206 206 206 206 206 206 206 206 206 206 206 206 206 206 206 207 207 208 208 209 208 208 208 207 205 204 204 207 208 209 210
198 197 196 195 194 194 194 194 195 195 196 197 197 197 197 197 196 196 195 194 194 193 193 192 192 192 192 192 192 192 193 194 194 195 195 195 195 196 196 197 197 198 198 199 200 200 201 202 202 203 203 204 204 205 205 205 205 206 206 206 206 206 206 206 206 206 206 206 206 206 206 207 208 208 208 208 208 208 207 205 204 204 207 209 210 210
195 194 193 193 193 193 193 193 194 195 195 196 196 196 196 196 195 195 194 193 193 192 192 192 192 192 192 192 192 192 193 193 194 194 194 194 195 195 196 196 197 197 198 199 199 200 200 201 202 202 203 203 204 204 204 205 205 205 206 206 206 206 206 206 206 206 206 206 206 206 206 207 208 208 208 208 208 208 207 205 204 204 207 209 210 210
192 192 191 191 191 192 192 193 193 194 194 195 195 195 195 195 194 194 193 193 192 192 192 191 191 191 191 192 192 193 193 193 193 193 194 194 194 195 196 196 197 197 198 198 199 200 200 201 201 202 202 203 203 203 204 204 205 205 205 206 206 206 206 206 206 206 206 206 206 206 206 207 207 208 208 208 208 208 207 206 204 204 206 209 210 211
190 190 190 190 190 191 191 192 192 193 193 194 194 194 194 194 194 193 193 192 192 191 191 191 191 191 191 191 192 192 192 193 193 193 193 193 194 194 195 196 196 197 197 198 199 200 200 201 201 202 202 202 203 203 203 204 204 205 205 205 205 205 205 205 205 205 205 205 205 206 206 207 208 208 208 208 208 208 208 206 205 205 206 209 210 211
187 188 188 189 190 190 191 191 192 192 192 193 193 193 193 193 193 192 192 192 191 191 191 191 191 191 191 191 191 191 192 192 192 192 192 193 194 194 195 195 196 196 197 198 198 199 200 201 201 201 202 202 202 202 203 203 204 204 205 205 205 205 205 205 205 205 205 205 205 206 206 207 208 208 208 208 208 208 208 207 205 205 206 208 210 211
186 186 187 188 189 190 190 191 191 191 191 191 192 192 192 192 192 192 191 191 191 191 191 191 191 191 191 191 191 191 191 191 192 192 192 193 193 194 194 195 195 196 197 197 198 199 199 200 201 201 202 202 202 202 202 203 203 204 205 205 205 205 205 205 205 205 205 205 205 206 206 207 208 208 208 208 208 208 208 207 205 205 206 208 210 210
184 185 186 188 188 189 190 190 190 190 190 190 191 191 191 191 191 191 191 191 190 190 190 190 190 190 191 191 191 191 191 191 191 191 192 193 193 194 194 195 195 196 196 197 198 199 199 200 200 201 201 201 201 201 202 202 203 204 205 205 205 205 205 205 205 205 205 205 205 206 207 207 207 208 208 208 208 208 208 207 206 205 206 208 209 210
183 185 186 187 188 189 189 190 190 190 190 190 190 190 190 190 190 190 190 190 190 190 190 190 190 190 190 190 191 191 190 190 191 191 192 192 193 193 194 194 195 195 196 197 197 198 199 199 200 200 201 201 201 201 201 202 203 204 204 205 205 205 205 205 205 205 205 205 205 206 206 207 207 208 208 208 208 208 208 207 206 205 206 207 209 210
182 184 185 186 187 188 188 189 189 189 189 189 189 189 189 189 190 190 190 190 190 190 189 189 189 190 190 190 190 190 190 190 190 191 191 192 192 193 194 194 194 195 196 197 197 198 198 199 199 200 200 200 201 201 201 201 202 203 204 204 205 205 205 205 205 205 205 205 205 206 206 207 207 207 208 208 208 208 208 208 207 206 206 207 209 210
182 183 185 186 186 187 187 188 188 188 188 188 188 188 189 189 189 189 189 189 189 189 189 189 189 189 189 190 190 190 190 190 190 191 191 192 192 193 193 194 194 195 196 196 197 198 198 199 199 200 200 200 201 201 201 201 202 203 204 204 204 205 205 205 205 205 205 206 206 206 206 207 207 207 207 208 208 208 208 208 207 207 207 208 209 210
181 183 184 185 186 186 187 187 187 187 187 187 187 187 188 188 189 189 189 189 189 189 189 189 189 189 189 189 189 189 189 190 190 191 191 191 192 192 193 193 194 195 195 196 197 197 198 199 199 200 200 201 201 201 200 201 201 202 203 204 204 205 205 205 205 205 205 206 206 206 207 207 207 207 207 208 208 208 208 208 207 207 207 208 209 210
181 182 183 184 185 185 186 186 186 186 186 187 187 187 187 188 188 188 189 189 189 189 189 189 189 189 189 189 189 189 189 190 190 190 191 191 192 192 193 193 194 194 195 196 197 197 198 198 199 200 200 201 201 200 200 201 201 202 203 204 204 204 205 205 205 205 205 206 206 206 207 207 207 207 208 208 208 208 208 208 207 207 207 208 209 210
180 181 183 183 184 184 185 185 185 186 186 186 186 187 187 187 188 188 189 189 189 189 189 189 189 189 189 189 189 189 189 190 190 190 191 191 191 192 192 193 193 194 195 196 196 197 198 198 199 199 200 200 201 200 200 200 201 202 203 203 204 204 205 205 205 205 205 205 206 206 206 207 207 207 208 208 208 208 208 207 207 206 207 208 209 210
180 181 182 183 183 184 184 184 185 185 185 185 186 186 187 187 187 188 188 188 189 189 189 189 189 189 189 189 189 189 189 190 190 190 191 191 191 192 192 193 193 194 195 195 196 197 197 198 198 199 200 200 200 200 200 200 201 202 203 203 204 204 204 205 205 205 205 205 205 206 206 206 207 207 208 208 208 208 208 207 206 206 207 209 210 210
179 180 181 182 183 183 183 184 184 184 185 185 185 186 186 187 187 187 188 188 188 188 189 189 189 189 189 189 189 189 189 189 190 190 191 191 191 192 192 192 193 194 195 195 196 196 196 197 198 199 199 200 200 199 199 199 200 201 202 203 204 204 204 204 205 205 205 205 205 205 206 206 206 207 207 208 208 208 208 206 206 206 207 209 210 210
179 180 181 181 182 182 183 183 184 184 184 185 185 185 186 186 187 187 188 188 188 188 188 188 188 188 188 188 188 189 189 189 190 190 191 191 191 192 192 192 193 194 194 195 195 196 196 197 197 198 199 200 199 199 198 199 200 201 202 203 203 204 204 204 205 205 205 205 205 205 205 206 206 207 207 207 208 208 207 206 205 206 207 209 210 210
178 179 180 181 181 182 182 183 183 184 184 184 185 185 186 186 186 187 187 188 188 188 188 188 188 188 188 188 188 189 189 189 190 190 190 191 191 191 192 192 193 194 194 195 195 196 196 197 197 198 199 199 199 199 198 198 199 201 202 203 203 203 204 204 205 205 205 205 205 205 205 205 206 206 207 207 207 207 207 206 205 205 207 209 210 211
177 178 179 180 181 182 182 182 183 183 184 184 185 185 185 186 186 187 187 187 188 188 188 188 188 188 188 188 188 189 189 189 190 190 190 191 191 191 192 192 193 194 194 195 195 196 196 197 198 198 199 199 199 198 198 198 199 201 202 203 203 203 203 204 204 205 205 205 205 205 205 205 205 206 206 207 207 207 206 205 205 205 207 208 210 211
177 178 179 180 180 181 182 182 183 183 183 184 184 185 185 186 186 187 187 187 187 188 188 188 188 188 188 188 188 189 189 190 190 190 190 191 191 191 192 192 193 194 194 195 195 196 196 197 198 199 199 199 199 198 198 198 199 201 202 202 203 203 203 204 204 204 205 205 206 206 205 205 205 205 206 206 207 206 206 205 204 205 207 208 209 210
176 177 178 179 180 181 181 182 182 183 183 184 184 185 185 186 186 187 187 187 187 188 188 188 188 188 188 188 188 189 189 190 190 190 190 191 191 191 192 192 193 194 194 195 195 196 197 197 198 199 199 199 199 198 198 198 199 201 201 202 203 203 203 203 204 204 205 205 206 206 206 205 205 205 205 206 206 206 205 205 204 205 206 208 209 210
176 177 178 178 179 180 181 181 182 183 183 184 184 185 185 186 186 186 187 187 187 188 188 188 188 188 188 188 189 189 189 190 190 190 191 191 191 191 192 193 193 194 194 195 195 196 196 197 198 199 199 199 199 198 198 198 199 200 201 202 202 203 203 203 204 204 205 205 206 206 207 206 206 206 205 206 206 206 206 205 204 205 206 207 209 210
Height
10003 10008 10013 10017 10022 10026 10031 10037 10043 10049 10054 10061 10068 10075 10083 10090 10098 10106 10115 10124 10133 10143 10154 10164 10176 10186 10197 10208 10219 10231 10243 10255 10266 10279 10291 10304 10316 10328 10338 10349 10359 10370 10380 10391 10403 10414 10425 10436 10448 10459 10470 10481 10491 10500 10510 10520 10530 10540 10548 10557 10565 10574 10581 10589 10597 10605 10613 10621 10629 10636 10645 10652 10660 10666 10670 10675 10681 10687 10693 10698 10704 10710 10717 10725 10730 10731
9998 10003 10008 10012 10017 10021 10026 10032 10038 10043 10049 10056 10063 10069 10077 10084 10092 10100 10108 10118 10127 10136 10147 10158 10168 10179 10190 10201 10213 10224 10236 10248 10260 10272 10284 10296 10308 10320 10331 10342 10353 10363 10373 10384 10395 10406 10418 10430 10441 10453 10464 10475 10485 10494 10503 10513 10523 10533 10542 10551 10560 10568 10576 10583 10591 10600 10608 10616 10624 10631 10640 10647 10654 10659 10664 10670 10675 10681 10686 10692 10698 10705 10711 10718 10725 10727
9994 9998 10003 10007 10012 10017 10022 10027 10033 10038 10044 10051 10057 10064 10071 10079 10086 10094 10103 10111 10121 10130 10140 10151 10161 10172 10183 10194 10206 10217 10229 10240 10252 10265 10276 10289 10301 10313 10325 10336 10346 10357 10368 10378 10388 10400 10411 10424 10436 10447 10458 10468 10478 10488 10497 10507 10517 10527 10536 10545 10553 10561 10570 10578 10586 10594 10603 10611 10619 10626 10635 10641 10648 10653 10658 10665 10670 10675 10680 10686 10692 10699 10706 10714 10721 10724
9989 9994 9998 10003 10008 10013 10018 10023 10028 10033 10039 10046 10053 10059 10066 10073 10081 10089 10097 10106 10114 10124 10134 10144 10154 10165 10176 10187 10198 10209 10221 10233 10245 10256 10269 10281 10294 10306 10318 10329 10340 10351 10361 10372 10383 10394 10406 10418 10430 10441 10451 10461 10471 10481 10491 10501 10511 10521 10530 10538 10547 10556 10564 10573 10581 10589 10598 10606 10613 10621 10630 10636 10643 10649 10654 10660 10666 10671 10676 10682 10688 10695 10701 10709 10715 10718
9984 9989 9994 9999 10003 10008 10013 10018 10024 10029 10035 10041 10048 10054 10061 10068 10076 10084 10092 10100 10109 10118 10128 10138 10148 10159 10169 10180 10191 10203 10214 10225 10237 10249 10261 10274 10286 10300 10311 10322 10333 10343 10355 10365 10376 10388 10401 10413 10425 10435 10445 10455 10464 10474 10484 10495 10505 10514 10523 10532 10541 10550 10558 10567 10576 10584 10593 10600 10608 10616 10624 10631 10638 10644 10650 10655 10663 10669 10672 10678 10684 10690 10696 10701 10706 10708
9981 9985 9990 9994 9999 10004 10009 10014 10019 10025 10031 10036 10043 10049 10056 10064 10071 10079 10087 10096 10104 10113 10123 10132 10143 10153 10163 10173 10184 10195 10206 10218 10230 10243 10255 10268 10280 10292 10304 10315 10325 10336 10347 10358 10370 10381 10394 10406 10418 10428 10438 10448 10457 10467 10478 10488 10498 10508 10517 10526 10535 10544 10553 10562 10570 10579 10587 10595 10603 10611 10619 10626 10633 10640 10645 10651 10659 10665 10668 10673 10679 10685 10690 10693 10698 10702
9978 9981 9986 9990 9995 10000 10005 10010 10015 10021 10026 10032 10038 10045 10052 10059 10066 10074 10083 10091 10099 10108 10117 10127 10136 10146 10157 10167 10178 10189 10200 10212 10224 10236 10249 10261 10273 10285 10296 10308 10318 10330 10341 10352 10363 10376 10388 10400 10411 10421 10431 10441 10451 10461 10471 10481 10491 10501 10511 10521 10530 10538 10547 10556 10565 10573 10581 10589 10597 10606 10614 10621 10628 10635 10640 10646 10653 10658 10662 10667 10673 10679 10684 10688 10692 10697
9974 9978 9982 9986 9991 9996 10001 10006 10011 10016 10022 10028 10034 10041 10048 10054 10062 10069 10078 10086 10094 10103 10112 10121 10131 10141 10151 10161 10171 10183 10194 10206 10218 10230 10242 10255 10266 10278 10290 10301 10313 10324 10335 10347 10358 10370 10383 10395 10405 10416 10426 10436 10446 10456 10466 10476 10486 10495 10505 10515 10523 10532 10541 10551 10559 10566 10575 10584 10592 10600 10608 10616 10623 10630 10636 10641 10646 10650 10655 10661 10666 10673 10680 10683 10688 10693
9971 9975 9978 9983 9987 9992 9997 10002 10008 10013 10018 10024 10030 10036 10043 10050 10058 10065 10073 10081 10090 10099 10108 10117 10126 10136 10145 10155 10166 10176 10188 10199 10211 10223 10235 10247 10259 10271 10283 10296 10308 10320 10331 10343 10355 10366 10378 10389 10400 10411 10421 10431 10440 10450 10460 10470 10480 10490 10500 10509 10518 10526 10536 10546 10553 10561 10570 10579 10587 10595 10603 10611 10618 10625 10631 10636 10640 10644 10650 10656 10661 10667 10674 10678 10682 10688
9969 9972 9976 9979 9984 9989 9993 9998 10004 10009 10014 10021 10026 10033 10039 10046 10053 10061 10069 10077 10085 10094 10103 10111 10121 10129 10139 10149 10159 10171 10182 10194 10205 10217 10229 10241 10253 10266 10279 10292 10305 10317 10328 10340 10350 10362 10373 10385 10396 10406 10416 10426 10435 10445 10455 10465 10475 10485 10494 10503 10512 10521 10530 10540 10548 10556 10565 10574 10582 10590 10598 10605 10612 10619 10626 10631 10636 10640 10645 10651 10656 10661 10667 10673 10678 10683
9966 9969 9973 9977 9981 9986 9990 9995 10000 10006 10011 10017 10023 10029 10036 10043 10049 10057 10064 10073 10081 10089 10098 10106 10115 10124 10133 10143 10154 10165 10176 10188 10199 10212 10224 10236 10249 10262 10276 10289 10301 10314 10325 10336 10346 10358 10370 10381 10391 10401 10411 10420 10430 10440 10450 10460 10470 10480 10488 10498 10506 10516 10525 10535 10543 10551 10560 10569 10577 10585 10592 10600 10606 10613 10621 10627 10631 10636 10641 10647 10652 10657 10663 10670 10675 10680
9963 9967 9971 9974 9978 9983 9987 9992 9997 10003 10008 10013 10019 10026 10032 10039 10046 10053 10061 10068 10076 10085 10094 10102 10111 10119 10129 10138 10149 10160 10171 10183 10195 10208 10220 10233 10246 10260 10273 10286 10298 10310 10321 10333 10343 10355 10366 10377 10387 10396 10406 10415 10424 10434 10444 10454 10464 10473 10483 10492 10501 10511 10520 10529 10538 10546 10555 10564 10571 10579 10586 10593 10601 10608 10616 10622 10628 10633 10638 10643 10648 10654 10659 10666 10673 10678
9960 9964 9968 9972 9976 9980 9984 9989 9994 9999 10004 10009 10016 10021 10028 10035 10042 10049 10058 10065 10073 10081 10089 10097 10106 10114 10124 10134 10144 10155 10167 10179 10192 10204 10216 10230 10243 10257 10270 10283 10295 10307 10318 10329 10340 10351 10363 10373 10383 10392 10400 10409 10418 10428 10438 10448 10458 10468 10477 10487 10497 10506 10515 10525 10533 10541 10550 10558 10566 10573 10580 10588 10595 10603 10611 10618 10624 10629 10634 10640 10645 10650 10656 10662 10668 10672
9958 9961 9966 9969 9973 9978 9982 9986 9991 9995 10000 10006 10012 10018 10025 10032 10039 10047 10054 10062 10070 10078 10085 10093 10101 10110 10119 10130 10141 10152 10164 10176 10188 10200 10213 10226 10239 10253 10266 10279 10291 10302 10313 10325 10336 10348 10358 10369 10378 10387 10395 10404 10413 10423 10432 10442 10452 10463 10473 10483 10493 10502 10511 10520 10528 10536 10545 10553 10560 10568 10575 10582 10590 10598 10606 10614 10620 10626 10631 10636 10641 10647 10653 10659 10663 10666
9955 9959 9963 9967 9971 9975 9979 9984 9988 9993 9998 10003 10009 10016 10023 10030 10037 10044 10051 10059 10066 10074 10081 10089 10098 10106 10116 10126 10138 10150 10162 10173 10185 10198 10211 10223 10236 10249 10262 10274 10285 10295 10306 10318 10330 10341 10353 10363 10373 10382 10390 10398 10408 10417 10426 10436 10447 10458 10468 10479 10488 10498 10506 10515 10523 10531 10540 10548 10555 10563 10570 10578 10586 10594 10602 10610 10616 10622 10627 10632 10638 10644 10650 10655 10658 10661
9953 9956 9961 9964 9969 9973 9978 9982 9986 9991 9996 10001 10007 10013 10020 10026 10033 10041 10048 10055 10063 10070 10078 10086 10094 10103 10113 10124 10135 10147 10158 10170 10183 10195 10208 10220 10233 10246 10258 10270 10280 10290 10301 10313 10324 10335 10346 10358 10368 10376 10385 10393 10402 10411 10421 10433 10444 10455 10465 10475 10485 10494 10502 10511 10519 10526 10535 10542 10550 10558 10565 10573 10582 10590 10598 10605 10612 10618 10623 10629 10635 10641 10646 10649 10652 10657
9950 9954 9958 9963 9967 9971 9976 9980 9984 9989 9994 9999 10004 10011 10017 10024 10031 10038 10045 10053 10060 10067 10074 10082 10090 10099 10110 10121 10132 10143 10155 10167 10179 10192 10204 10216 10229 10243 10255 10265 10275 10286 10297 10308 10319 10330 10341 10353 10363 10371 10380 10388 10398 10407 10418 10430 10441 10452 10461 10471 10480 10489 10498 10506 10514 10521 10530 10538 10545 10553 10561 10569 10578 10586 10594 10601 10608 10614 10620 10625 10631 10637 10641 10643 10647 10653
9948 9952 9956 9961 9965 9969 9974 9978 9983 9987 9992 9998 10003 10009 10015 10022 10029 10036 10043 10050 10057 10064 10071 10079 10088 10097 10107 10118 10129 10141 10152 10164 10176 10188 10201 10213 10226 10238 10250 10260 10270 10280 10292 10303 10315 10326 10338 10348 10358 10366 10375 10383 10393 10403 10415 10426 10438 10448 10458 10466 10476 10485 10493 10501 10509 10516 10525 10533 10541 10549 10557 10565 10573 10581 10589 10596 10603 10610 10616 10621 10627 10632 10635 10639 10644 10650
9947 9951 9955 9959 9963 9968 9972 9976 9981 9986 9991 9996 10001 10007 10013 10020 10027 10033 10040 10047 10054 10061 10068 10076 10086 10095 10105 10114 10125 10137 10149 10161 10173 10185 10198 10210 10223 10234 10244 10253 10263 10275 10286 10298 10310 10322 10333 10343 10351 10360 10369 10379 10388 10400 10411 10421 10433 10443 10452 10461 10471 10480 10488 10496 10504 10512 10520 10528 10536 10545 10553 10561 10570 10577 10584 10591 10598 10605 10612 10618 10623 10627 10631 10635 10641 10646
9946 9949 9954 9958 9962 9966 9971 9975 9980 9984 9989 9994 10000 10006 10012 10018 10024 10031 10038 10044 10051 10058 10066 10074 10083 10093 10103 10113 10123 10134 10146 10157 10169 10181 10194 10206 10218 10228 10238 10248 10258 10271 10283 10295 10306 10318 10328 10338 10346 10355 10364 10374 10385 10395 10406 10417 10427 10437 10446 10456 10466 10475 10483 10491 10499 10507 10516 10524 10533 10541 10549 10557 10565 10572 10579 10586 10594 10601 10608 10614 10619 10623 10626 10632 10638 10643
9945 9948 9953 9957 9961 9965 9969 9974 9979 9983 9988 9993 9999 10004 10011 10017 10023 10029 10036 10043 10049 10056 10064 10073 10081 10090 10099 10110 10121 10133 10144 10154 10166 10178 10190 10201 10212 10222 10232 10243 10254 10267 10280 10291 10302 10313 10323 10333 10341 10350 10360 10370 10380 10390 10401 10412 10423 10432 10442 10451 10461 10470 10478 10486 10494 10503 10511 10520 10528 10536 10545 10552 10560 10566 10574 10581 10589 10596 10603 10610 10614 10618 10623 10629 10635 10639
9944 9948 9952 9956 9960 9964 9969 9973 9978 9983 9988 9993 9998 10004 10010 10016 10022 10028 10034 10041 10048 10054 10062 10070 10079 10088 10097 10108 10119 10130 10141 10153 10164 10175 10186 10198 10208 10218 10227 10238 10250 10263 10275 10286 10296 10307 10318 10328 10336 10345 10355 10365 10375 10385 10396 10407 10418 10428 10437 10447 10457 10466 10474 10482 10490 10498 10506 10515 10523 10531 10540 10547 10554 10561 10569 10576 10583 10591 10598 10605 10610 10615 10620 10625 10630 10633
9944 9947 9951 9954 9959 9963 9968 9972 9977 9981 9986 9992 9998 10003 10009 10015 10021 10026 10033 10039 10046 10053 10060 10068 10077 10086 10096 10107 10118 10128 10139 10151 10161 10172 10183 10194 10204 10213 10223 10235 10248 10260 10271 10281 10291 10303 10314 10324 10332 10340 10350 10359 10370 10381 10392 10403 10413 10424 10433 10443 10453 10461 10470 10478 10485 10494 10502 10511 10519 10526 10534 10541 10549 10556 10564 10571 10578 10586 10593 10600 10605 10610 10616 10621 10625 10626
9943 9946 9949 9954 9958 9962 9966 9971 9976 9981 9986 9992 9998 10004 10009 10014 10020 10026 10032 10038 10044 10052 10059 10068 10077 10086 10096 10106 10117 10128 10138 10149 10159 10169 10181 10190 10198 10208 10220 10232 10245 10256 10267 10277 10287 10299 10310 10321 10328 10336 10346 10356 10367 10378 10388 10398 10410 10420 10430 10440 10449 10458 10465 10473 10481 10490 10498 10506 10514 10521 10529 10536 10544 10551 10559 10566 10573 10581 10589 10595 10600 10606 10611 10616 10618 10621
9943 9946 9949 9953 9958 9962 9966 9971 9976 9981 9987 9993 9998 10004 10009 10014 10019 10024 10031 10037 10044 10051 10059 10068 10076 10084 10094 10104 10114 10125 10135 10145 10155 10166 10176 10184 10193 10204 10216 10229 10241 10253 10263 10273 10283 10295 10306 10317 10325 10333 10343 10353 10364 10374 10385 10395 10406 10416 10426 10435 10445 10453 10461 10470 10477 10485 10493 10501 10510 10516 10524 10531 10539 10546 10554 10561 10568 10575 10583 10590 10596 10601 10606 10610 10612 10615
9943 9946 9949 9953 9958 9961 9966 9971 9976 9981 9987 9992 9997 10002 10007 10012 10018 10023 10029 10036 10043 10049 10057 10065 10073 10082 10092 10101 10111 10121 10129 10139 10150 10160 10169 10177 10189 10201 10214 10226 10237 10248 10258 10269 10281 10293 10303 10313 10321 10330 10340 10350 10360 10370 10381 10391 10402 10413 10421 10431 10440 10449 10458 10466 10473 10481 10490 10497 10505 10512 10519 10526 10534 10541 10549 10556 10563 10570 10577 10585 10591 10596 10601 10604 10606 10610
9944 9948 9951 9954 9958 9961 9966 9971 9976 9981 9986 9992 9997 10002 10007 10011 10017 10023 10028 10034 10041 10048 10056 10064 10073 10081 10091 10100 10108 10116 10125 10135 10145 10154 10163 10173 10186 10199 10211 10223 10233 10244 10255 10267 10279 10290 10300 10310 10317 10326 10336 10346 10356 10366 10377 10388 10398 10408 10417 10426 10435 10444 10453 10461 10470 10477 10485 10493 10500 10508 10515 10522 10530 10536 10543 10550 10557 10564 10572 10580 10586 10591 10596 10598 10601 10605
9946 9948 9951 9954 9958 9962 9966 9971 9976 9981 9986 9991 9996 10001 10006 10011 10016 10021 10028 10034 10041 10048 10056 10064 10072 10081 10089 10097 10104 10113 10122 10132 10141 10149 10159 10170 10183 10195 10208 10218 10229 10241 10253 10265 10276 10286 10295 10305 10313 10321 10332 10342 10352 10363 10374 10385 10394 10403 10411 10421 10431 10440 10449 10457 10465 10473 10481 10489 10496 10503 10510 10518 10525 10531 10538 10545 10551 10558 10566 10573 10580 10586 10590 10593 10596 10600
9946 9949 9953 9956 9959 9963 9967 9971 9976 9981 9986 9991 9995 10000 10004 10010 10016 10021 10028 10034 10041 10048 10056 10063 10071 10078 10086 10093 10101 10110 10119 10129 10137 10146 10156 10168 10179 10191 10204 10214 10226 10238 10250 10261 10272 10281 10291 10301 10310 10318 10328 10338 10349 10360 10371 10381 10390 10400 10409 10418 10428 10437 10446 10454 10462 10470 10478 10485 10491 10499 10506 10513 10520 10526 10533 10540 10546 10553 10560 10568 10575 10581 10585 10588 10591 10595
9948 9951 9954 9957 9960 9964 9968 9972 9976 9981 9985 9990 9994 9999 10004 10009 10015 10021 10028 10034 10041 10048 10054 10062 10069 10076 10083 10091 10099 10108 10117 10125 10133 10142 10153 10164 10178 10191 10202 10213 10224 10235 10246 10258 10268 10279 10290 10298 10306 10315 10325 10336 10346 10356 10367 10378 10388 10397 10408 10416 10425 10435 10443 10451 10459 10466 10473 10480 10487 10495 10501 10508 10515 10521 10528 10534 10541 10547 10555 10562 10570 10576 10580 10583 10587 10591
9948 9951 9954 9958 9961 9964 9968 9972 9976 9980 9984 9989 9994 9999 10004 10009 10016 10022 10028 10034 10040 10046 10053 10060 10067 10074 10081 10089 10098 10106 10113 10121 10129 10140 10152 10164 10177 10189 10201 10211 10221 10232 10243 10254 10265 10275 10285 10293 10302 10312 10322 10333 10343 10353 10364 10375 10386 10396 10405 10413 10422 10431 10439 10447 10455 10461 10469 10476 10483 10490 10497 10503 10510 10516 10522 10529 10535 10542 10549 10557 10565 10571 10576 10579 10583 10587
9949 9952 9955 9958 9961 9964 9968 9972 9976 9979 9984 9988 9993 9998 10004 10009 10015 10021 10027 10033 10039 10046 10052 10059 10065 10072 10079 10086 10094 10101 10109 10118 10128 10139 10152 10164 10176 10188 10198 10208 10218 10229 10240 10250 10259 10267 10276 10286 10298 10308 10319 10330 10340 10351 10362 10373 10383 10392 10400 10409 10418 10426 10435 10442 10450 10457 10465 10471 10478 10485 10492 10498 10504 10510 10517 10523 10530 10536 10544 10552 10560 10566 10571 10575 10578 10583
9950 9953 9956 9958 9961 9964 9968 9971 9975 9979 9984 9988 9993 9999 10004 10009 10016 10021 10027 10033 10039 10045 10051 10057 10063 10070 10078 10084 10092 10099 10108 10118 10129 10141 10153 10164 10174 10185 10195 10204 10214 10226 10238 10248 10256 10263 10271 10283 10295 10305 10315 10326 10338 10349 10360 10370 10380 10388 10395 10404 10413 10421 10430 10438 10446 10453 10460 10467 10474 10481 10487 10493 10498 10505 10511 10518 10525 10532 10539 10547 10555 10561 10566 10570 10574 10579
9951 9953 9956 9959 9962 9964 9968 9971 9975 9979 9984 9988 9993 9999 10004 10009 10015 10021 10026 10033 10038 10044 10049 10056 10062 10069 10076 10084 10091 10100 10109 10119 10129 10141 10151 10162 10172 10182 10192 10202 10214 10226 10236 10246 10255 10265 10275 10285 10295 10304 10313 10324 10336 10347 10358 10368 10376 10383 10391 10400 10409 10418 10425 10433 10441 10448 10455 10463 10470 10477 10483 10488 10493 10500 10506 10513 10521 10528 10535 10542 10550 10557 10562 10566 10570 10575
9951 9954 9956 9959 9962 9965 9968 9971 9975 9979 9984 9989 9994 9999 10004 10009 10015 10021 10026 10032 10038 10043 10049 10055 10061 10068 10075 10083 10090 10099 10109 10119 10129 10139 10149 10159 10168 10178 10188 10199 10212 10224 10233 10243 10253 10264 10275 10285 10295 10304 10311 10322 10335 10346 10356 10364 10372 10380 10388 10396 10405 10413 10421 10428 10436 10443 10451 10458 10466 10472 10478 10483 10488 10495 10501 10509 10517 10525 10531 10538 10545 10552 10558 10561 10566 10571
9952 9954 9957 9959 9963 9966 9969 9972 9976 9980 9984 9989 9994 9999 10004 10010 10015 10021 10026 10031 10037 10043 10049 10055 10062 10068 10075 10082 10089 10097 10106 10116 10127 10138 10147 10156 10165 10174 10185 10196 10208 10219 10230 10240 10250 10259 10270 10280 10291 10301 10310 10320 10332 10343 10353 10360 10368 10377 10385 10394 10402 10410 10416 10424 10431 10439 10446 10454 10461 10466 10471 10477 10484 10490 10497 10505 10513 10521 10527 10534 10541 10547 10552 10557 10561 10567
9953 9955 9958 9960 9963 9966 9969 9973 9977 9981 9985 9989 9994 9999 10005 10010 10015 10021 10026 10031 10037 10043 10049 10055 10062 10069 10075 10082 10089 10097 10106 10115 10126 10136 10145 10154 10164 10174 10184 10196 10207 10218 10229 10238 10247 10256 10265 10275 10285 10296 10307 10317 10328 10339 10350 10358 10367 10376 10383 10391 10399 10406 10413 10421 10428 10435 10443 10449 10455 10461 10466 10473 10480 10486 10493 10501 10510 10517 10523 10530 10536 10542 10547 10551 10556 10563
9954 9956 9958 9961 9964 9967 9971 9974 9978 9982 9986 9991 9995 10000 10005 10010 10015 10021 10026 10031 10037 10043 10048 10054 10061 10068 10075 10083 10090 10098 10107 10116 10125 10134 10143 10153 10163 10173 10184 10195 10207 10218 10226 10235 10244 10254 10263 10272 10283 10294 10305 10315 10325 10335 10345 10355 10365 10373 10379 10386 10393 10401 10410 10418 10425 10432 10439 10445 10451 10456 10463 10469 10475 10482 10490 10498 10506 10513 10519 10525 10531 10537 10542 10547 10553 10559
9954 9957 9959 9962 9965 9968 9971 9975 9979 9983 9987 9991 9996 10001 10006 10011 10016 10021 10026 10031 10036 10042 10048 10054 10060 10067 10074 10082 10090 10099 10108 10116 10124 10133 10142 10151 10161 10172 10182 10194 10206 10216 10224 10231 10240 10250 10260 10270 10279 10290 10301 10311 10322 10333 10343 10352 10359 10365 10372 10381 10390 10398 10406 10414 10421 10428 10435 10441 10446 10453 10460 10466 10473 10480 10487 10495 10502 10508 10514 10520 10526 10532 10538 10544 10550 10556
9956 9958 9961 9963 9966 9969 9973 9976 9980 9984 9988 9993 9997 10002 10006 10011 10016 10021 10026 10031 10036 10042 10048 10053 10059 10066 10074 10081 10089 10098 10106 10114 10123 10131 10140 10150 10160 10170 10181 10193 10203 10213 10222 10230 10239 10248 10257 10266 10275 10284 10294 10306 10317 10328 10340 10349 10355 10361 10369 10379 10388 10396 10404 10411 10418 10425 10432 10438 10444 10450 10457 10463 10470 10477 10484 10491 10498 10504 10510 10515 10521 10527 10533 10538 10544 10551
9957 9959 9962 9964 9968 9971 9974 9978 9981 9985 9989 9993 9998 10002 10007 10011 10016 10021 10026 10031 10037 10043 10048 10054 10059 10066 10073 10081 10088 10096 10104 10113 10121 10129 10139 10148 10158 10168 10179 10191 10201 10209 10218 10228 10237 10246 10255 10265 10275 10285 10294 10303 10313 10325 10337 10346 10353 10360 10368 10376 10384 10391 10399 10406 10414 10421 10429 10436 10442 10448 10455 10461 10468 10475 10481 10488 10494 10500 10505 10510 10516 10523 10529 10534 10540 10545
9958 9961 9963 9966 9969 9972 9975 9979 9983 9986 9990 9994 9999 10003 10008 10012 10017 10021 10026 10032 10037 10043 10048 10054 10059 10066 10073 10081 10088 10096 10104 10112 10120 10128 10138 10147 10156 10167 10178 10188 10198 10207 10216 10226 10234 10244 10254 10264 10275 10285 10295 10304 10314 10325 10336 10345 10351 10358 10366 10373 10380 10387 10395 10403 10411 10418 10425 10433 10440 10446 10453 10460 10466 10472 10478 10484 10490 10495 10501 10507 10513 10520 10525 10531 10536 10542
9960 9962 9964 9968 9970 9973 9976 9980 9984 9988 9991 9996 9999 10004 10009 10013 10018 10023 10028 10033 10038 10043 10048 10054 10059 10066 10073 10081 10089 10097 10104 10112 10119 10128 10137 10146 10156 10165 10176 10186 10196 10206 10216 10224 10234 10243 10254 10264 10273 10282 10290 10300 10311 10323 10335 10344 10350 10355 10360 10367 10376 10385 10395 10402 10408 10415 10421 10428 10436 10443 10450 10456 10462 10468 10474 10480 10486 10492 10498 10505 10511 10516 10521 10526 10532 10538
9961 9964 9966 9969 9972 9975 9978 9981 9985 9989 9993 9996 10001 10005 10009 10014 10019 10024 10029 10034 10039 10044 10049 10055 10061 10068 10074 10081 10089 10096 10104 10111 10119 10128 10136 10146 10155 10164 10174 10185 10196 10205 10214 10223 10233 10244 10254 10263 10272 10279 10286 10296 10308 10320 10330 10338 10345 10352 10359 10365 10373 10381 10390 10396 10403 10411 10418 10425 10432 10438 10445 10450 10456 10463 10470 10476 10483 10488 10495 10501 10508 10514 10518 10522 10528 10533
9963 9966 9968 9971 9973 9976 9979 9983 9986 9990 9994 9998 10002 10006 10011 10015 10019 10024 10029 10034 10039 10045 10051 10056 10063 10069 10076 10083 10089 10096 10104 10111 10119 10128 10136 10146 10154 10164 10173 10183 10193 10203 10212 10221 10231 10241 10251 10260 10268 10276 10285 10295 10305 10316 10327 10335 10341 10347 10355 10362 10371 10378 10383 10389 10396 10405 10415 10423 10430 10436 10442 10447 10453 10460 10467 10473 10480 10485 10491 10496 10503 10508 10513 10518 10523 10529
9965 9967 9969 9972 9975 9978 9981 9984 9988 9991 9995 9999 10003 10007 10011 10016 10021 10026 10030 10035 10040 10046 10051 10057 10063 10069 10076 10083 10090 10097 10104 10111 10119 10128 10137 10146 10154 10163 10173 10182 10191 10200 10209 10219 10229 10238 10247 10255 10263 10273 10282 10291 10301 10311 10322 10331 10338 10343 10350 10356 10365 10374 10382 10389 10396 10403 10411 10418 10426 10433 10439 10445 10451 10458 10463 10468 10473 10480 10485 10491 10497 10503 10508 10513 10519 10525
9967 9969 9971 9974 9976 9979 9983 9986 9989 9993 9996 10000 10004 10008 10013 10017 10021 10026 10031 10036 10041 10046 10052 10058 10064 10069 10076 10083 10090 10097 10104 10111 10119 10128 10136 10145 10154 10163 10173 10181 10189 10198 10207 10216 10226 10236 10245 10251 10259 10267 10275 10285 10296 10308 10318 10326 10334 10341 10347 10353 10361 10370 10379 10387 10395 10403 10410 10415 10422 10429 10436 10443 10449 10454 10458 10462 10467 10473 10480 10486 10492 10498 10503 10508 10514 10520
9968 9971 9973 9976 9978 9981 9984 9988 9991 9994 9998 10002 10006 10009 10014 10018 10023 10027 10032 10037 10042 10048 10053 10058 10064 10070 10076 10083 10089 10096 10103 10109 10118 10126 10134 10143 10153 10162 10171 10179 10188 10196 10206 10214 10224 10234 10243 10250 10256 10263 10271 10280 10291 10304 10316 10325 10331 10337 10343 10350 10358 10366 10373 10382 10391 10400 10407 10413 10418 10423 10431 10438 10443 10448 10453 10458 10463 10470 10476 10482 10488 10493 10499 10503 10508 10515
9970 9973 9975 9978 9980 9983 9986 9989 9993 9996 9999 10003 10007 10011 10015 10019 10024 10028 10033 10038 10043 10048 10053 10058 10064 10070 10076 10083 10089 10096 10102 10109 10116 10124 10133 10142 10151 10160 10169 10178 10186 10195 10204 10213 10223 10231 10239 10247 10253 10261 10270 10280 10291 10303 10313 10322 10328 10333 10340 10348 10355 10363 10370 10379 10388 10396 10402 10407 10412 10418 10425 10431 10436 10440 10446 10452 10458 10464 10471 10476 10482 10488 10493 10498 10503 10510
9972 9974 9976 9979 9982 9985 9988 9991 9994 9998 10001 10005 10009 10013 10016 10021 10025 10029 10034 10039 10044 10048 10054 10059 10064 10070 10076 10082 10089 10095 10102 10109 10116 10124 10133 10142 10151 10159 10167 10175 10184 10193 10203 10213 10221 10230 10239 10246 10254 10262 10272 10281 10292 10303 10311 10319 10325 10331 10338 10345 10353 10360 10368 10376 10384 10390 10395 10400 10406 10414 10421 10426 10432 10436 10441 10446 10451 10458 10464 10470 10475 10481 10486 10492 10498 10505
9974 9976 9978 9981 9984 9986 9989 9993 9996 9999 10003 10006 10010 10014 10018 10022 10026 10030 10035 10039 10044 10049 10054 10060 10066 10071 10076 10083 10088 10094 10101 10108 10116 10124 10133 10141 10149 10158 10166 10173 10181 10191 10201 10210 10219 10229 10237 10245 10254 10263 10273 10282 10291 10301 10309 10315 10321 10328 10335 10342 10350 10357 10365 10373 10378 10383 10387 10393 10401 10410 10417 10424 10430 10436 10440 10443 10448 10453 10460 10465 10470 10476 10481 10486 10493 10499